Location: Rostock
(54.0884°N, 12.1234°E)
Time: 00:46:38
(UTC+01:00)

ISS - Pass Details

Date: 15 November 2017
Orbit: 402 x 407 km, 51.6° (Epoch: 24 November)

Event Time Altitude Azimuth Distance (km) Brightness Sun altitude
Exits shadow 04:55:19 17° 153° (SSE) 1,095 -1.4 -23.8°
Drops below altitude 10° 04:56:22 10° 141° (SE) 1,453 -0.6 -23.6°
Sets 04:58:35 0° 130° (SE) 2,310 0.8 -23.3°
